Time,TemperatureF,DewpointF,PressureIn,WindDirection,WindDirectionDegrees,WindSpeedMPH,WindSpeedGustMPH,Humidity,HourlyPrecipIn,Conditions,Clouds,dailyrainin,SoftwareType,DateUTC
2013-01-16 00:02:00,78.0,-99.9,29.99,ENE,60,16.0,22.0,-999,-99.99,,,-99.99,,2013-01-16 04:02:00,
2013-01-16 00:12:00,78.0,-99.9,29.99,ENE,60,16.0,22.0,-999,-99.99,,,-99.99,,2013-01-16 04:12:00,
2013-01-16 00:22:00,78.0,-99.9,29.99,ENE,60,16.0,22.0,-999,-99.99,,,-99.99,,2013-01-16 04:22:00,
2013-01-16 00:33:00,78.0,-99.9,29.99,ENE,60,16.0,20.0,-999,-99.99,,,-99.99,,2013-01-16 04:33:00,
2013-01-16 00:42:00,78.0,-99.9,29.99,ENE,60,16.0,20.0,-999,-99.99,,,-99.99,,2013-01-16 04:42:00,
2013-01-16 00:53:00,78.0,-99.9,29.99,ENE,60,16.0,20.0,-999,-99.99,,,-99.99,,2013-01-16 04:53:00,
2013-01-16 01:04:00,78.0,-99.9,29.98,ENE,60,16.0,20.0,-999,-99.99,,,-99.99,,2013-01-16 05:04:00,
2013-01-16 01:12:00,78.0,-99.9,29.98,ENE,60,16.0,20.0,-999,-99.99,,,-99.99,,2013-01-16 05:12:00,
2013-01-16 01:23:00,78.0,-99.9,29.98,ENE,60,16.0,20.0,-999,-99.99,,,-99.99,,2013-01-16 05:23:00,
2013-01-16 01:33:00,78.0,-99.9,29.98,NE,50,16.0,22.0,-999,-99.99,,,-99.99,,2013-01-16 05:33:00,
2013-01-16 01:43:00,78.0,-99.9,29.98,NE,50,16.0,22.0,-999,-99.99,,,-99.99,,2013-01-16 05:43:00,
2013-01-16 01:53:00,78.0,-99.9,29.98,NE,50,16.0,22.0,-999,-99.99,,,-99.99,,2013-01-16 05:53:00,
2013-01-16 02:03:00,78.0,-99.9,29.98,NE,40,16.0,20.0,-999,-99.99,,,-99.99,,2013-01-16 06:03:00,
2013-01-16 02:12:00,78.0,-99.9,29.98,NE,40,16.0,20.0,-999,-99.99,,,-99.99,,2013-01-16 06:12:00,
2013-01-16 02:22:00,78.0,-99.9,29.98,NE,40,16.0,20.0,-999,-99.99,,,-99.99,,2013-01-16 06:22:00,
2013-01-16 02:33:00,78.0,-99.9,29.97,NE,40,13.0,18.0,-999,-99.99,,,-99.99,,2013-01-16 06:33:00,
2013-01-16 02:43:00,78.0,-99.9,29.97,NE,40,13.0,18.0,-999,-99.99,,,-99.99,,2013-01-16 06:43:00,
2013-01-16 02:53:00,78.0,-99.9,29.97,NE,40,13.0,18.0,-999,-99.99,,,-99.99,,2013-01-16 06:53:00,
2013-01-16 03:02:00,78.0,-99.9,29.96,NE,50,13.0,18.0,-999,-99.99,,,-99.99,,2013-01-16 07:02:00,
2013-01-16 03:12:00,78.0,-99.9,29.96,NE,50,13.0,18.0,-999,-99.99,,,-99.99,,2013-01-16 07:12:00,
2013-01-16 03:22:00,78.0,-99.9,29.96,NE,50,13.0,18.0,-999,-99.99,,,-99.99,,2013-01-16 07:22:00,
2013-01-16 03:33:00,76.0,-99.9,29.96,ENE,70,18.0,25.0,-999,-99.99,,,-99.99,,2013-01-16 07:33:00,
2013-01-16 03:42:00,76.0,-99.9,29.96,ENE,70,18.0,25.0,-999,-99.99,,,-99.99,,2013-01-16 07:42:00,
2013-01-16 03:52:00,76.0,-99.9,29.96,ENE,70,18.0,25.0,-999,-99.99,,,-99.99,,2013-01-16 07:52:00,
2013-01-16 04:03:00,77.0,-99.9,29.95,NE,50,7.0,11.0,-999,-99.99,,,-99.99,,2013-01-16 08:03:00,
2013-01-16 04:12:00,77.0,-99.9,29.95,NE,50,7.0,11.0,-999,-99.99,,,-99.99,,2013-01-16 08:12:00,
2013-01-16 04:23:00,77.0,-99.9,29.95,NE,50,7.0,11.0,-999,-99.99,,,-99.99,,2013-01-16 08:23:00,
2013-01-16 04:33:00,78.0,-99.9,29.95,ENE,60,16.0,22.0,-999,-99.99,,,-99.99,,2013-01-16 08:33:00,
2013-01-16 04:42:00,78.0,-99.9,29.95,ENE,60,16.0,22.0,-999,-99.99,,,-99.99,,2013-01-16 08:42:00,
2013-01-16 04:53:00,78.0,-99.9,29.95,ENE,60,16.0,22.0,-999,-99.99,,,-99.99,,2013-01-16 08:53:00,
2013-01-16 05:02:00,78.0,-99.9,29.95,ENE,60,16.0,20.0,-999,-99.99,,,-99.99,,2013-01-16 09:02:00,
2013-01-16 05:12:00,78.0,-99.9,29.95,ENE,60,16.0,20.0,-999,-99.99,,,-99.99,,2013-01-16 09:12:00,
2013-01-16 05:22:00,78.0,-99.9,29.95,ENE,60,16.0,20.0,-999,-99.99,,,-99.99,,2013-01-16 09:22:00,
2013-01-16 05:33:00,78.0,-99.9,29.95,ENE,60,11.0,13.0,-999,-99.99,,,-99.99,,2013-01-16 09:33:00,
2013-01-16 05:43:00,78.0,-99.9,29.95,ENE,60,11.0,13.0,-999,-99.99,,,-99.99,,2013-01-16 09:43:00,
2013-01-16 05:53:00,78.0,-99.9,29.95,ENE,60,11.0,13.0,-999,-99.99,,,-99.99,,2013-01-16 09:53:00,
2013-01-16 06:03:00,77.0,-99.9,29.96,NE,50,13.0,18.0,-999,-99.99,,,-99.99,,2013-01-16 10:03:00,
2013-01-16 06:12:00,77.0,-99.9,29.96,NE,50,13.0,18.0,-999,-99.99,,,-99.99,,2013-01-16 10:12:00,
2013-01-16 06:22:00,77.0,-99.9,29.96,NE,50,13.0,18.0,-999,-99.99,,,-99.99,,2013-01-16 10:22:00,
2013-01-16 06:33:00,76.0,-99.9,29.97,NE,50,13.0,18.0,-999,-99.99,,,-99.99,,2013-01-16 10:33:00,
2013-01-16 06:43:00,76.0,-99.9,29.97,NE,50,13.0,18.0,-999,-99.99,,,-99.99,,2013-01-16 10:43:00,
2013-01-16 06:53:00,76.0,-99.9,29.97,NE,50,13.0,18.0,-999,-99.99,,,-99.99,,2013-01-16 10:53:00,
2013-01-16 07:02:00,76.0,-99.9,29.98,ENE,60,9.0,11.0,-999,-99.99,,,-99.99,,2013-01-16 11:02:00,
2013-01-16 07:12:00,76.0,-99.9,29.98,ENE,60,9.0,11.0,-999,-99.99,,,-99.99,,2013-01-16 11:12:00,
2013-01-16 07:23:00,76.0,-99.9,29.98,ENE,60,9.0,11.0,-999,-99.99,,,-99.99,,2013-01-16 11:23:00,
2013-01-16 07:33:00,75.0,-99.9,29.99,ENE,70,11.0,16.0,-999,-99.99,,,-99.99,,2013-01-16 11:33:00,
2013-01-16 07:43:00,75.0,-99.9,29.99,ENE,70,11.0,16.0,-999,-99.99,,,-99.99,,2013-01-16 11:43:00,
2013-01-16 07:53:00,75.0,-99.9,29.99,ENE,70,11.0,16.0,-999,-99.99,,,-99.99,,2013-01-16 11:53:00,
2013-01-16 08:03:00,75.0,-99.9,30.00,NE,50,11.0,13.0,-999,-99.99,,,-99.99,,2013-01-16 12:03:00,
2013-01-16 08:13:00,75.0,-99.9,30.00,NE,50,11.0,13.0,-999,-99.99,,,-99.99,,2013-01-16 12:13:00,
2013-01-16 08:22:00,75.0,-99.9,30.00,NE,50,11.0,13.0,-999,-99.99,,,-99.99,,2013-01-16 12:22:00,
2013-01-16 08:33:00,73.0,-99.9,30.01,East,80,11.0,16.0,-999,-99.99,,,-99.99,,2013-01-16 12:33:00,
2013-01-16 08:43:00,73.0,-99.9,30.01,East,80,11.0,16.0,-999,-99.99,,,-99.99,,2013-01-16 12:43:00,
2013-01-16 08:53:00,73.0,-99.9,30.01,East,80,11.0,16.0,-999,-99.99,,,-99.99,,2013-01-16 12:53:00,
2013-01-16 09:00:00,73.0,-99.9,30.04,ESE,120,11.0,16.0,-999,-99.99,,,-99.99,,2013-01-16 13:00:00,
2013-01-16 09:03:00,74.0,-99.9,30.02,ESE,110,9.0,11.0,-999,-99.99,,,-99.99,,2013-01-16 13:03:00,
2013-01-16 09:13:00,74.0,-99.9,30.02,ESE,110,9.0,11.0,-999,-99.99,,,-99.99,,2013-01-16 13:13:00,
2013-01-16 09:23:00,74.0,-99.9,30.02,ESE,110,9.0,11.0,-999,-99.99,,,-99.99,,2013-01-16 13:23:00,
2013-01-16 09:33:00,73.0,-99.9,30.04,ESE,120,11.0,16.0,-999,-99.99,,,-99.99,,2013-01-16 13:33:00,
2013-01-16 09:43:00,73.0,-99.9,30.04,ESE,120,11.0,16.0,-999,-99.99,,,-99.99,,2013-01-16 13:43:00,
2013-01-16 09:53:00,73.0,-99.9,30.04,ESE,120,11.0,16.0,-999,-99.99,,,-99.99,,2013-01-16 13:53:00,
2013-01-16 15:43:00,77.0,-99.9,29.96,East,100,16.0,20.0,-999,-99.99,,,-99.99,,2013-01-16 19:43:00,
2013-01-16 15:53:00,77.0,-99.9,29.96,East,100,16.0,20.0,-999,-99.99,,,-99.99,,2013-01-16 19:53:00,
2013-01-16 16:03:00,78.0,-99.9,29.96,East,90,18.0,22.0,-999,-99.99,,,-99.99,,2013-01-16 20:03:00,
2013-01-16 16:12:00,78.0,-99.9,29.96,East,90,18.0,22.0,-999,-99.99,,,-99.99,,2013-01-16 20:12:00,
2013-01-16 16:23:00,78.0,-99.9,29.96,East,90,18.0,22.0,-999,-99.99,,,-99.99,,2013-01-16 20:23:00,
2013-01-16 16:33:00,78.0,-99.9,29.96,East,80,16.0,20.0,-999,-99.99,,,-99.99,,2013-01-16 20:33:00,
2013-01-16 16:43:00,78.0,-99.9,29.96,East,80,16.0,20.0,-999,-99.99,,,-99.99,,2013-01-16 20:43:00,
2013-01-16 16:53:00,78.0,-99.9,29.96,East,80,16.0,20.0,-999,-99.99,,,-99.99,,2013-01-16 20:53:00,
2013-01-16 17:03:00,78.0,-99.9,29.96,East,90,16.0,18.0,-999,-99.99,,,-99.99,,2013-01-16 21:03:00,
2013-01-16 17:13:00,78.0,-99.9,29.96,East,90,16.0,18.0,-999,-99.99,,,-99.99,,2013-01-16 21:13:00,
2013-01-16 17:23:00,78.0,-99.9,29.96,East,90,16.0,18.0,-999,-99.99,,,-99.99,,2013-01-16 21:23:00,
2013-01-16 17:33:00,77.0,-99.9,29.98,East,80,18.0,22.0,-999,-99.99,,,-99.99,,2013-01-16 21:33:00,
2013-01-16 17:43:00,77.0,-99.9,29.98,East,80,18.0,22.0,-999,-99.99,,,-99.99,,2013-01-16 21:43:00,
2013-01-16 17:53:00,77.0,-99.9,29.98,East,80,18.0,22.0,-999,-99.99,,,-99.99,,2013-01-16 21:53:00,
2013-01-16 18:03:00,78.0,-99.9,29.98,ENE,60,16.0,18.0,-999,-99.99,,,-99.99,,2013-01-16 22:03:00,
2013-01-16 18:12:00,78.0,-99.9,29.98,ENE,60,16.0,18.0,-999,-99.99,,,-99.99,,2013-01-16 22:12:00,
2013-01-16 18:23:00,78.0,-99.9,29.98,ENE,60,16.0,18.0,-999,-99.99,,,-99.99,,2013-01-16 22:23:00,
2013-01-16 18:33:00,78.0,-99.9,29.98,ENE,60,16.0,20.0,-999,-99.99,,,-99.99,,2013-01-16 22:33:00,
2013-01-16 18:43:00,78.0,-99.9,29.98,ENE,60,16.0,20.0,-999,-99.99,,,-99.99,,2013-01-16 22:43:00,
2013-01-16 18:53:00,78.0,-99.9,29.98,ENE,60,16.0,20.0,-999,-99.99,,,-99.99,,2013-01-16 22:53:00,
2013-01-16 19:03:00,79.0,-99.9,29.99,East,80,18.0,22.0,-999,-99.99,,,-99.99,,2013-01-16 23:03:00,
2013-01-16 19:12:00,79.0,-99.9,29.99,East,80,18.0,22.0,-999,-99.99,,,-99.99,,2013-01-16 23:12:00,
2013-01-16 19:23:00,79.0,-99.9,29.99,East,80,18.0,22.0,-999,-99.99,,,-99.99,,2013-01-16 23:23:00,
2013-01-16 19:33:00,79.0,-99.9,29.99,East,80,18.0,20.0,-999,-99.99,,,-99.99,,2013-01-16 23:33:00,
2013-01-16 19:43:00,79.0,-99.9,29.99,East,80,18.0,20.0,-999,-99.99,,,-99.99,,2013-01-16 23:43:00,
2013-01-16 19:53:00,79.0,-99.9,29.99,East,80,18.0,20.0,-999,-99.99,,,-99.99,,2013-01-16 23:53:00,
2013-01-16 20:03:00,78.0,-99.9,30.01,ENE,60,18.0,22.0,-999,-99.99,,,-99.99,,2013-01-17 00:03:00,
2013-01-16 20:12:00,78.0,-99.9,30.01,ENE,60,18.0,22.0,-999,-99.99,,,-99.99,,2013-01-17 00:12:00,
2013-01-16 20:23:00,78.0,-99.9,30.01,ENE,60,18.0,22.0,-999,-99.99,,,-99.99,,2013-01-17 00:23:00,
2013-01-16 20:33:00,78.0,-99.9,30.02,ENE,70,18.0,20.0,-999,-99.99,,,-99.99,,2013-01-17 00:33:00,
2013-01-16 20:43:00,78.0,-99.9,30.02,ENE,70,18.0,20.0,-999,-99.99,,,-99.99,,2013-01-17 00:43:00,
2013-01-16 20:53:00,78.0,-99.9,30.02,ENE,70,18.0,20.0,-999,-99.99,,,-99.99,,2013-01-17 00:53:00,
2013-01-16 21:03:00,79.0,-99.9,30.03,East,80,18.0,20.0,-999,-99.99,,,-99.99,,2013-01-17 01:03:00,
2013-01-16 21:12:00,79.0,-99.9,30.03,East,80,18.0,20.0,-999,-99.99,,,-99.99,,2013-01-17 01:12:00,
2013-01-16 21:22:00,79.0,-99.9,30.03,East,80,18.0,20.0,-999,-99.99,,,-99.99,,2013-01-17 01:22:00,
2013-01-16 21:33:00,79.0,-99.9,30.03,ENE,70,16.0,20.0,-999,-99.99,,,-99.99,,2013-01-17 01:33:00,
2013-01-16 21:43:00,79.0,-99.9,30.03,ENE,70,16.0,20.0,-999,-99.99,,,-99.99,,2013-01-17 01:43:00,
2013-01-16 21:53:00,79.0,-99.9,30.03,ENE,70,16.0,20.0,-999,-99.99,,,-99.99,,2013-01-17 01:53:00,
2013-01-16 22:02:00,79.0,-99.9,30.03,ENE,70,18.0,22.0,-999,-99.99,,,-99.99,,2013-01-17 02:02:00,
2013-01-16 22:12:00,79.0,-99.9,30.03,ENE,70,18.0,22.0,-999,-99.99,,,-99.99,,2013-01-17 02:12:00,
2013-01-16 22:22:00,79.0,-99.9,30.03,ENE,70,18.0,22.0,-999,-99.99,,,-99.99,,2013-01-17 02:22:00,
2013-01-16 22:33:00,79.0,-99.9,30.03,ENE,70,16.0,18.0,-999,-99.99,,,-99.99,,2013-01-17 02:33:00,
2013-01-16 22:43:00,79.0,-99.9,30.03,ENE,70,16.0,18.0,-999,-99.99,,,-99.99,,2013-01-17 02:43:00,
2013-01-16 22:52:00,79.0,-99.9,30.03,ENE,70,16.0,18.0,-999,-99.99,,,-99.99,,2013-01-17 02:52:00,
2013-01-16 23:03:00,78.0,-99.9,30.03,ENE,60,16.0,25.0,-999,-99.99,,,-99.99,,2013-01-17 03:03:00,
2013-01-16 23:12:00,78.0,-99.9,30.03,ENE,60,16.0,25.0,-999,-99.99,,,-99.99,,2013-01-17 03:12:00,
2013-01-16 23:22:00,78.0,-99.9,30.03,ENE,60,16.0,25.0,-999,-99.99,,,-99.99,,2013-01-17 03:22:00,
2013-01-16 23:33:00,77.0,-99.9,30.03,ENE,60,16.0,18.0,-999,-99.99,,,-99.99,,2013-01-17 03:33:00,
2013-01-16 23:43:00,77.0,-99.9,30.03,ENE,60,16.0,18.0,-999,-99.99,,,-99.99,,2013-01-17 03:43:00,
2013-01-16 23:53:00,77.0,-99.9,30.03,ENE,60,16.0,18.0,-999,-99.99,,,-99.99,,2013-01-17 03:53:00,